Regional Weather Roundup
Issued by NWS

Home | Current Version | Previous Version | Text Only | Print | Product List | Glossary Off
Versions: 1 2 3 4 5 6 7 8 9 10 11 12 13 14 15 16 17 18 19 20 21 22 23 24 25 26 27 28 29 30 31 32 33 34 35 36 37 38 39 40 41 42 43 44 45 46 47 48 49 50

000
ASUS43 KFSD 071002
RWRSD

WEATHER ROUNDUP FOR SOUTH DAKOTA
NATIONAL WEATHER SERVICE SIOUX FALLS SD
400 AM CST WED DEC 07 2016

NOTE: "FAIR" INDICATES FEW OR NO CLOUDS BELOW 12,000 FEET WITH NO
SIGNIFICANT WEATHER AND/OR OBSTRUCTIONS TO VISIBILITY.


SDZ001>005-009-010-012>017-071100-
NORTHWEST AND NORTH CENTRAL SOUTH DAKOTA

CITY           SKY/WX    TMP DP  RH WIND       PRES   REMARKS
BUFFALO          N/A      0  -6  76 W22       30.12R WCI -23
FAITH            N/A     -1  -6  79 W20       30.18R WCI -23
MOBRIDGE       CLOUDY     8  -2  63 NW25G41   30.11R WCI -13
$$

SDZ012>016-024>037-041>051-057-063-072>074-071100-
SOUTHWEST AND SOUTH CENTRAL SOUTH DAKOTA

CITY           SKY/WX    TMP DP  RH WIND       PRES   REMARKS
RAPID CTY ARPT CLOUDY     4  -3  73 N20       30.18R WCI -17
PIERRE         PTCLDY     8   2  76 NW30G37   30.18R WCI -15
CUSTER         CLOUDY    -2  -8  76 SW6       29.96R WCI -14
ELLSWORTH AFB  CLOUDY     4  -3  70 NW22      30.16R WCI -17
PHILIP         CLEAR      4  -4  69 NW14      30.24R WCI -14
PINE RIDGE     CLOUDY     3  -1  83 NE3       30.16F
SPEARFISH      CLOUDY     3  -4  72 NW16      30.15R WCI -16
WINNER         FAIR       9   0  67 NW18      30.22R WCI -10
$$

SDZ004>011-016>023-039-040-071100-
NORTHEAST SOUTH DAKOTA

CITY           SKY/WX    TMP DP  RH WIND       PRES   REMARKS
ABERDEEN       CLEAR      9   0  67 W22       30.10R WCI -11
WATERTOWN      CLOUDY     6   1  80 W21G30    30.02R WCI -14
SISSETON         N/A     13   5  70 NW24G36   29.97R WCI  -7
$$

SDZ017-020-022-023-036>040-048>070-071100-
SOUTHEAST SOUTH DAKOTA

CITY           SKY/WX    TMP DP  RH WIND       PRES   REMARKS
SIOUX FALLS    CLEAR      9   3  77 W22G31    30.12R WCI -11
HURON          CLEAR      7   1  76 NW20      30.15R WCI -13
MITCHELL       CLEAR      9   2  73 W17G25    30.19R WCI  -9
YANKTON        CLEAR     10   3  72 W16       30.19S WCI  -7
$$

ABBREVIATIONS USED IN REMARKS
   TC - TEMPERATURE IN CELSIUS
  WCI - WIND CHILL INDEX
   HX - HEAT INDEX
  VSB - VISIBILITY





USA.gov is the U.S. government's official web portal to all federal, state and local government web resources and services.